Starlink 34297

operational
NORAD ID: 64261 Int'l Des: 2025-120 Owner: SPXS Country: US Constellation: starlink
LEOCIRCULAR

Starlink 34297について

説明を読み込み中...

リアルタイム位置

3D地球を読み込み中...

次回通過

高度履歴

Altitude vs Time

uPlot chart will show altitude changes over time

軌道要素

1 64261U 25120F 25307.80929678 .00021642 00000-0 74061-3 0 9991
2 64261 53.1588 341.3749 0001446 95.3731 264.7435 15.30203740 24546
Epoch: Nov 3, 2025 • Age: 12 hours

現在のステータス

高度 476.6 km
速度 7.63 km/s
衛星直下点 -4.17°S, 10.4°E
打ち上げ日 Jun 4, 2025
運用期間 0.4 years
タイプ internet

技術仕様

分類 Payload
質量 575.00 kg
乾燥質量 530.00 kg
総質量 575.00 kg
長さ 0.30 m
直径 4.10 m
スパン 29.00 m
形状 Box + pan
製造者 SPXS
バスタイプ Starlink V2MO
フェーズステータス In Orbit
所有者/国 SPXS/US

大規模コンステレーション

Loading constellations...